Location: Béaulencourt
(50.0796°N, 2.8795°E)
Time: 23:59:08
(UTC+00:00)

ATLAS 2AS CENTAUR R/B - Pass Details

Date: 20 January 2026
Orbit: 1050 x 1161 km, 63.7° (Epoch: 9 February)

Event Time Altitude Azimuth Distance (km) Brightness Sun altitude
Exits shadow 03:37:35 46° 60° (ENE) 1,379 3.5 -37.8°
Drops below altitude 10° 03:43:10 10° 110° (ESE) 2,865 5.5 -37.0°
Sets 03:45:54 0° 116° (ESE) 3,822 6.2 -36.5°
